Date String (YYYY-MM-DD hh:mm:ss) UTC,Instrument flags,Ambient pressure (hPa),Sample flow (lpm),Bypass flow (lpm),Sample temperature (°C),Ambient temperature (°C),ASC tube jacket temperature (°C),LED temperature (°C),Box temperature (°C),Sample RH (%),Span deviation,Mass concentration (μg/m³),Mass concentration (μg/m³),Mass concentration (μg/m³)
DateTimeUTC,F1_M11,P_M11,Q1_M11,Q2_M11,T1_M11,T2_M11,T3_M11,T4_M11,T5_M11,U1_M11,ZSPAN_M11,X0_M11,X2_M11,X1_M11
2022-05-22 07:00:00,,0832.5,4.99,0.00,24.3,23.2,00.0,33.2,26.1,15.4,0000.0,0000.20,0000.05,0000.01
2022-05-22 07:01:00,,0832.5,5.01,0.00,24.3,23.2,00.0,33.2,26.1,15.4,0000.0,0000.21,0000.05,0000.01
2022-05-22 07:02:00,,0832.5,4.99,0.00,24.3,23.2,00.0,33.2,26.1,15.4,0000.0,0000.21,0000.05,0000.01
2022-05-22 07:03:00,,0832.5,5.00,0.00,24.2,23.2,00.0,33.2,26.1,15.3,0000.0,0000.21,0000.05,0000.01
2022-05-22 07:04:00,,0832.5,5.00,0.00,24.2,23.2,00.0,33.2,26.1,15.2,0000.0,0000.21,0000.05,0000.01
2022-05-22 07:05:00,,0832.5,5.00,0.00,24.2,23.2,00.0,33.2,26.1,15.2,0000.0,0000.20,0000.05,0000.01
2022-05-22 07:06:00,,0832.5,5.00,0.00,24.2,23.2,00.0,33.2,26.1,15.2,0000.0,0000.18,0000.04,0000.01
2022-05-22 07:07:00,,0832.5,5.01,0.00,24.2,23.2,00.0,33.2,26.1,15.2,0000.0,0000.20,0000.05,0000.01
2022-05-22 07:08:00,,0832.5,5.00,0.00,24.2,23.2,00.0,33.2,26.1,15.4,0000.0,0000.17,0000.04,0000.01
2022-05-22 07:09:00,,0832.5,5.00,0.00,24.2,23.2,00.0,33.2,26.1,15.7,0000.0,0000.09,0000.04,0000.01
2022-05-22 07:10:00,,0832.5,5.00,0.00,24.2,23.2,00.0,33.2,26.1,15.9,0000.0,0000.09,0000.04,0000.01
2022-05-22 07:11:00,,0832.5,5.01,0.00,24.2,23.2,00.0,33.2,26.1,16.1,0000.0,0000.06,0000.03,0000.01
2022-05-22 07:12:00,,0832.5,4.99,0.00,24.2,23.2,00.0,33.2,26.1,16.3,0000.0,0000.08,0000.04,0000.01
2022-05-22 07:13:00,,0832.4,5.01,0.00,24.2,23.2,00.0,33.2,26.1,16.6,0000.0,0000.08,0000.04,0000.01
2022-05-22 07:14:00,,0832.4,5.00,0.00,24.2,23.2,00.0,33.2,26.1,16.8,0000.0,0000.08,0000.04,0000.01
2022-05-22 07:15:00,,0832.3,5.01,0.00,24.2,23.2,00.0,33.2,26.1,16.8,0000.0,0000.08,0000.04,0000.01
2022-05-22 07:16:00,,0832.4,4.99,0.00,24.2,23.2,00.0,33.2,26.1,16.7,0000.0,0000.08,0000.04,0000.01
2022-05-22 07:17:00,,0832.3,5.00,0.00,24.2,23.2,00.0,33.2,26.1,16.5,0000.0,0000.06,0000.03,0000.00
2022-05-22 07:18:00,,0832.4,4.99,0.00,24.2,23.2,00.0,33.2,26.1,16.4,0000.0,0000.05,0000.03,0000.00
2022-05-22 07:19:00,,0832.3,5.01,0.00,24.2,23.2,00.0,33.2,26.1,16.3,0000.0,0000.08,0000.03,0000.00
2022-05-22 07:20:00,,0832.4,4.99,0.00,24.2,23.2,00.0,33.2,26.2,16.4,0000.0,0001.76,0000.04,0000.00
2022-05-22 07:21:00,,0832.4,5.01,0.00,24.2,23.2,00.0,33.2,26.2,16.5,0000.0,0001.76,0000.04,0000.00
2022-05-22 07:22:00,,0832.4,4.99,0.00,24.3,23.3,00.0,33.2,26.2,16.3,0000.0,0001.76,0000.04,0000.00
2022-05-22 07:23:00,,0832.4,5.02,0.00,24.2,23.3,00.0,33.2,26.2,16.0,0000.0,0001.82,0000.04,0000.00
2022-05-22 07:24:00,,0832.4,4.99,0.00,24.2,23.3,00.0,33.2,26.2,15.9,0000.0,0001.82,0000.04,0000.00
2022-05-22 07:25:00,,0832.4,5.01,0.00,24.3,23.3,00.0,33.2,26.2,15.7,0000.0,0001.82,0000.04,0000.01
2022-05-22 07:26:00,,0832.4,5.00,0.00,24.2,23.3,00.0,33.2,26.2,15.6,0000.0,0001.82,0000.04,0000.01
2022-05-22 07:27:00,,0832.3,4.99,0.00,24.2,23.3,00.0,33.2,26.2,15.9,0000.0,0001.82,0000.04,0000.01
2022-05-22 07:28:00,,0832.4,5.00,0.00,24.2,23.3,00.0,33.2,26.2,16.2,0000.0,0001.82,0000.04,0000.00
2022-05-22 07:29:00,,0832.4,5.01,0.00,24.2,23.3,00.0,33.2,26.2,16.1,0000.0,0001.84,0000.04,0000.00
2022-05-22 07:30:00,,0832.4,4.99,0.00,24.3,23.3,00.0,33.2,26.2,16.0,0000.0,0002.39,0000.04,0000.00
2022-05-22 07:31:00,,0832.4,5.01,0.00,24.3,23.3,00.0,33.2,26.2,16.0,0000.0,0001.36,0000.03,0000.00
2022-05-22 07:32:00,,0832.4,4.99,0.00,24.3,23.3,00.0,33.2,26.2,16.1,0000.0,0001.36,0000.03,0000.00
2022-05-22 07:33:00,,0832.4,5.00,0.00,24.2,23.3,00.0,33.2,26.1,16.2,0000.0,0001.36,0000.03,0000.00
2022-05-22 07:34:00,,0832.4,5.01,0.00,24.2,23.3,00.0,33.2,26.1,16.3,0000.0,0001.28,0000.02,0000.00
2022-05-22 07:35:00,,0832.3,4.99,0.00,24.2,23.2,00.0,33.2,26.1,16.0,0000.0,0001.28,0000.02,0000.00
2022-05-22 07:36:00,,0832.3,5.01,0.00,24.2,23.2,00.0,33.2,26.1,15.5,0000.0,0001.27,0000.02,0000.00
2022-05-22 07:37:00,,0832.2,4.99,0.00,24.2,23.2,00.0,33.2,26.1,15.4,0000.0,0001.29,0000.03,0000.00
2022-05-22 07:38:00,,0832.2,5.01,0.00,24.2,23.2,00.0,33.2,26.1,15.5,0000.0,0001.30,0000.03,0000.00
2022-05-22 07:39:00,,0832.3,4.99,0.00,24.2,23.2,00.0,33.2,26.1,15.4,0000.0,0001.30,0000.03,0000.00
2022-05-22 07:40:00,,0832.3,5.01,0.00,24.2,23.2,00.0,33.1,26.1,15.3,0000.0,0001.26,0000.02,0000.00
2022-05-22 07:41:00,,0832.3,5.00,0.00,24.2,23.2,00.0,33.1,26.1,15.3,0000.0,0000.58,0000.02,0000.00
2022-05-22 07:42:00,,0832.3,5.00,0.00,24.2,23.2,00.0,33.1,26.1,15.3,0000.0,0000.07,0000.03,0000.00
2022-05-22 07:43:00,,0832.4,5.00,0.00,24.2,23.2,00.0,33.1,26.1,15.1,0000.0,0000.08,0000.04,0000.00
2022-05-22 07:44:00,,0832.3,5.00,0.00,24.2,23.2,00.0,33.1,26.1,15.0,0000.0,0000.08,0000.04,0000.00
2022-05-22 07:45:00,,0832.4,4.99,0.00,24.2,23.2,00.0,33.1,26.1,15.0,0000.0,0000.08,0000.04,0000.00
2022-05-22 07:46:00,,0832.4,5.01,0.00,24.2,23.2,00.0,33.1,26.1,14.9,0000.0,0000.08,0000.04,0000.00
2022-05-22 07:47:00,,0832.4,4.99,0.00,24.2,23.2,00.0,33.1,26.1,15.0,0000.0,0000.08,0000.04,0000.00
2022-05-22 07:48:00,,0832.4,5.00,0.00,24.2,23.2,00.0,33.1,26.0,14.7,0000.0,0000.10,0000.04,0000.00
2022-05-22 07:49:00,,0832.4,5.01,0.00,24.2,23.2,00.0,33.1,26.0,14.7,0000.0,0000.27,0000.05,0000.01
2022-05-22 07:50:00,,0832.3,5.00,0.00,24.2,23.2,00.0,33.1,26.1,14.6,0000.0,0000.52,0000.05,0000.01
2022-05-22 07:51:00,,0832.4,4.99,0.00,24.2,23.2,00.0,33.1,26.1,14.3,0000.0,0000.52,0000.05,0000.01
2022-05-22 07:52:00,,0832.4,5.01,0.00,24.2,23.2,00.0,33.1,26.1,14.3,0000.0,0000.52,0000.05,0000.01
2022-05-22 07:53:00,,0832.4,5.01,0.00,24.2,23.2,00.0,33.1,26.1,14.2,0000.0,0000.47,0000.03,0000.00
2022-05-22 07:54:00,,0832.4,4.99,0.00,24.2,23.2,00.0,33.1,26.1,14.3,0000.0,0000.47,0000.03,0000.00
2022-05-22 07:55:00,,0832.3,5.01,0.00,24.2,23.2,00.0,33.1,26.1,14.5,0000.0,0000.47,0000.03,0000.00
2022-05-22 07:56:00,,0832.3,5.00,0.00,24.2,23.2,00.0,33.1,26.0,14.7,0000.0,0001.00,0000.03,0000.00
2022-05-22 07:57:00,,0832.4,5.00,0.00,24.1,23.1,00.0,33.1,26.0,14.7,0000.0,0001.13,0000.03,0000.00
2022-05-22 07:58:00,,0832.4,4.99,0.00,24.1,23.1,00.0,33.1,26.0,14.9,0000.0,0001.16,0000.04,0000.00
2022-05-22 07:59:00,,0832.4,5.01,0.00,24.1,23.1,00.0,33.1,25.9,14.7,0000.0,0001.18,0000.05,0000.00
